Location: Home
(42.5358°N, 72.7383°W)
Time: 07:49:44
(UTC-04:00)

Explorer 11/Cluster Stage 4 - Pass Details

Date: 19 April 2025
Orbit: 463 x 1190 km, 28.8° (Epoch: 14 May)

Event Time Altitude Azimuth Distance (km) Brightness Sun altitude
Rises 09:18:43 0° 243° (WSW) 2,935 9.2 34.7°
Reaches altitude 10° 09:22:47 10° 209° (SSW) 1,854 8.5 35.5°
Maximum altitude 09:24:08 11° 191° (S) 1,721 8.6 35.7°
Drops below altitude 10° 09:25:25 10° 172° (S) 1,759 8.8 35.9°
Sets 09:28:57 0° 136° (SE) 2,541 10.0 36.5°
